FW5955 Weather Reports


time (UTC)temp
F
wind
direction
speed
knots
gust
knots
rain 1hr
in
rain 24hr
in
rain mn
in
humidity
%
barometer
mb
20260505041537 42 238 7.0 10.4 0.00 0.03 0.00 88 1010.2
20260505040018 42 245 4.3 7.8 0.00 0.03 0.00 88 1010.0
20260505034515 42 266 2.6 7.8 0.00 0.07 0.00 87 1009.8
20260505033013 43 250 3.5 8.7 0.00 0.07 0.00 87 1009.4
20260505031510 43 250 3.5 8.7 0.00 0.07 0.00 87 1009.2
20260505030006 43 274 3.5 10.4 0.00 0.07 0.00 87 1009.0
20260505024505 43 290 4.3 9.6 0.00 0.08 0.07 86 1008.7
20260505023003 43 295 3.5 12.2 0.00 0.08 0.07 86 1008.6
20260505021600 43 253 5.2 10.4 0.00 0.08 0.07 87 1008.4
20260505020058 43 247 5.2 11.3 0.00 0.08 0.07 87 1008.2
20260505014618 42 252 5.2 9.6 0.00 0.09 0.07 88 1008.1
20260505013055 42 253 3.5 8.7 0.00 0.09 0.07 88 1007.9
20260505011603 42 262 3.5 12.2 0.00 0.09 0.07 88 1007.8
20260505010052 42 302 7.0 13.9 0.00 0.09 0.07 88 1007.7
20260505004551 42 307 7.0 13.9 0.00 0.10 0.07 89 1007.6
20260505003049 42 273 7.8 13.0 0.00 0.10 0.07 89 1007.4
20260505001602 42 262 4.3 10.4 0.00 0.10 0.07 89 1007.2
20260505000104 43 242 5.2 13.9 0.00 0.10 0.07 88 1007.2
20260504234603 43 250 6.1 14.8 0.00 0.13 0.07 88 1006.9
20260504233050 43 271 7.8 14.8 0.00 0.13 0.07 88 1006.8
20260504231541 43 247 5.2 11.3 0.00 0.13 0.07 88 1006.6
20260504230041 42 266 4.3 12.2 0.00 0.13 0.07 89 1006.4
20260504224548 43 243 7.0 17.4 0.00 0.25 0.07 88 1006.3
20260504223044 43 246 7.8 15.6 0.00 0.25 0.07 87 1006.4
20260504221538 44 270 7.8 16.5 0.00 0.25 0.07 85 1006.5
20260504220037 44 337 7.0 15.6 0.00 0.25 0.07 85 1006.2
20260504214534 44 248 7.8 20.9 0.00 0.30 0.07 84 1005.9
20260504213053 45 240 8.7 16.5 0.00 0.30 0.07 82 1005.7
20260504211532 46 246 7.8 15.6 0.00 0.30 0.07 79 1005.5
20260504210031 47 246 7.8 15.6 0.00 0.30 0.07 75 1005.4
20260504204531 48 269 7.8 16.5 0.00 0.35 0.07 74 1005.5
20260504203034 49 288 9.6 19.1 0.00 0.35 0.07 72 1005.3
20260504201508 49 255 7.8 18.2 0.00 0.35 0.07 72 1005.2
20260504200004 49 252 9.6 20.0 0.00 0.35 0.07 72 1005.1
20260504194504 50 243 12.2 20.9 0.00 0.43 0.07 70 1005.0
20260504193003 50 264 8.7 18.2 0.00 0.43 0.07 69 1004.8
20260504191502 50 269 10.4 19.1 0.00 0.43 0.07 63 1004.9
20260504190119 51 234 7.8 15.6 0.00 0.43 0.07 62 1004.6
20260504184608 51 282 8.7 18.2 0.00 0.50 0.07 62 1004.4
20260504183057 53 228 11.3 19.1 0.00 0.50 0.07 56 1004.3
20260504181558 56 219 8.7 15.6 0.00 0.50 0.07 52 1004.2
20260504180055 60 248 6.1 18.2 0.00 0.50 0.07 38 1004.3
20260504174602 59 30 7.8 20.0 0.00 0.63 0.07 37 1004.3
20260504173056 59 303 7.0 20.0 0.00 0.63 0.07 38 1004.3
20260504171551 58 224 8.7 17.4 0.00 0.63 0.07 39 1004.2
20260504081510 39 243 2.6 9.6 0.00 0.75 0.07 93 996.6
20260504044554 36 268 4.3 17.4 0.02 0.73 0.06 94 991.6
20260504043039 37 259 4.3 17.4 0.02 0.72 0.05 94 991.1